Regional Weather Roundup
Issued by NWS

Home | Current Version | Previous Version | Graphics & Text | Print | Product List | Glossary On
Versions: 1 2 3 4 5 6 7 8 9 10 11 12 13 14 15 16 17 18 19 20 21 22 23 24 25 26 27 28 29 30 31 32 33 34 35 36 37 38 39 40 41 42 43 44 45 46 47 48 49 50
000
ASUS43 KTOP 180308
RWRKS

WEATHER ROUNDUP FOR KANSAS
NATIONAL WEATHER SERVICE GOODLAND KS
1000 PM CDT WED SEP 17 2014

NOTE:  "FAIR" INDICATES FEW OR NO CLOUDS BELOW 12,000 FEET WITH NO
SIGNIFICANT WEATHER AND/OR OBSTRUCTIONS TO VISIBILITY.

KSZ001>006-013>018-027>032-041>047-180400-
NORTHWEST KANSAS

CITY           SKY/WX    TMP DP  RH WIND       PRES   REMARKS
GOODLAND       MOCLDY    60  54  80 SE7       29.96R
HAYS           PTCLDY    73  64  73 NE13      29.91R
HILL CITY      CLOUDY    73  66  78 E12       29.92R
RUSSELL        MOCLDY    72  66  81 E14       29.88R
$$

KSZ061>065-074>080-084>089-180400-
SOUTHWEST KANSAS

CITY           SKY/WX    TMP DP  RH WIND       PRES   REMARKS
DODGE CITY     CLOUDY    77  60  55 SW12      29.90R
ELKHART          N/A     72  58  61 SW6         N/A
GARDEN CITY    MOCLDY    71  60  68 SW7       29.91R
GREAT BEND     PTCLDY    75  66  73 E9        29.87R
LIBERAL        CLOUDY    73  59  60 SW7       29.94R
PRATT          MOCLDY    73  59  60 S7        29.88R
$$

KSZ066>073-081>083-090>101-180400-
SOUTHEAST KANSAS

CITY           SKY/WX    TMP DP  RH WIND       PRES   REMARKS
CHANUTE        PTCLDY    73  70  90 E8        29.90R
COFFEYVILLE    MOCLDY    73  64  73 S8        29.87R
HUTCHINSON     MOCLDY    76  68  76 E12       29.87R
MEDICINE LODGE   N/A     81  62  52 S5        29.85R
NEWTON         PTCLDY    72  63  73 E9        29.91R
PARSONS        MOCLDY    72  64  76 VRB3      29.90R
WICHITA INTL   MOCLDY    81  67  62 E8        29.85R
WICHITA JABRA  MOCLDY    76  68  76 E9        29.86R
WICHITA MCCONL CLOUDY    79  72  79 E7        29.86R
WINFIELD       MOCLDY    79  68  69 S9        29.86R
$$

KSZ007>012-019>026-033>040-048>060-102>105-180400-
NORTHEAST KANSAS

CITY           SKY/WX    TMP DP  RH WIND       PRES   REMARKS
CONCORDIA      CLEAR     67  65  93 E9        29.91R
EMPORIA        CLEAR     69  67  93 E9        29.91R
LAWRENCE       CLEAR     63  61  93 SE5       29.93R FOG
MANHATTAN      CLEAR     69  66  90 E6        29.92R
MARYSVILLE     CLEAR     64  63  94 SE3       29.94R
OLATHE IND     MOCLDY    66  65  96 E6        29.94R
OLATHE EXE     CLEAR     66  65  96 E5        29.93R FOG
SALINA         PTCLDY    73  66  78 E12       29.90R
TOPEKA BILLARD CLEAR     66  65  96 E3        29.93R FOG
TOPEKA FORBES  CLEAR     64  63  96 CALM      29.93R FOG
$$


USA.gov is the U.S. government's official web portal to all federal, state and local government web resources and services.